SAS1648 EDDH-EKCH

Flight info

Callsign SAS1648
Flight time 0h 43m
Altitude 23000
Route LUGEG3G/33 LUGEG P605 GESKA/N0335F220 Z711 MONAK
Aircraft A20N/M-SDE3FGIJ1RWXY/ALB1

Departure

Time 2026-05-07 09:22
Airport Hamburg Helmut Schmidt Airport (EDDH)

Arrival

Time 2026-05-07 10:05
Airport Copenhagen Kastrup Airport (EKCH)
Time Latitude Longitude Altitude Speed Heading
2026-05-07 09:12 53.63033 10.00349 50 ft 0 kts 122°
2026-05-07 09:17 53.63035 10.00343 49 ft 2 kts 122°
2026-05-07 09:17 53.63043 10.00320 46 ft 2 kts 122°
2026-05-07 09:17 53.63053 10.00296 45 ft 2 kts 124°
2026-05-07 09:17 53.63062 10.00274 50 ft 2 kts 135°
2026-05-07 09:18 53.63076 10.00263 44 ft 1 kts 206°
2026-05-07 09:18 53.63079 10.00266 45 ft 0 kts 204°
2026-05-07 09:19 53.63072 10.00260 44 ft 11 kts 205°
2026-05-07 09:19 53.62999 10.00186 50 ft 11 kts 212°
2026-05-07 09:20 53.62927 10.00113 50 ft 14 kts 211°
2026-05-07 09:20 53.62869 10.00036 50 ft 8 kts 228°
2026-05-07 09:20 53.62836 9.99935 50 ft 12 kts 242°
2026-05-07 09:20 53.62799 9.99806 47 ft 0 kts 267°
2026-05-07 09:21 53.62803 9.99800 48 ft 3 kts 303°
2026-05-07 09:21 53.62845 9.99757 48 ft 10 kts 329°
2026-05-07 09:21 53.62908 9.99704 49 ft 24 kts 334°
2026-05-07 09:21 53.63284 9.99390 50 ft 94 kts 333°
2026-05-07 09:22 53.64036 9.98738 51 ft 146 kts 332°
2026-05-07 09:22 53.65031 9.97867 287 ft 166 kts 335°
2026-05-07 09:22 53.66077 9.96943 802 ft 172 kts 336°
2026-05-07 09:22 53.67130 9.96048 1458 ft 168 kts 337°
2026-05-07 09:23 53.68216 9.95190 2044 ft 180 kts 341°
2026-05-07 09:23 53.69485 9.94645 2489 ft 197 kts 358°
2026-05-07 09:23 53.70922 9.94653 2938 ft 216 kts
2026-05-07 09:23 53.72447 9.94850 3874 ft 219 kts 22°
2026-05-07 09:24 53.73741 9.96099 4893 ft 217 kts 49°
2026-05-07 09:24 53.74518 9.98275 5852 ft 224 kts 67°
2026-05-07 09:24 53.75173 10.00780 6472 ft 247 kts 65°
2026-05-07 09:24 53.75899 10.03516 7188 ft 264 kts 66°
2026-05-07 09:25 53.76673 10.06419 8070 ft 273 kts 65°
2026-05-07 09:25 53.77478 10.09363 9015 ft 277 kts 64°
2026-05-07 09:25 53.78313 10.12351 9321 ft 283 kts 64°
2026-05-07 09:25 53.79159 10.15322 9686 ft 282 kts 63°
2026-05-07 09:26 53.80048 10.18318 10049 ft 286 kts 63°
2026-05-07 09:26 53.80982 10.21414 10254 ft 311 kts 62°
2026-05-07 09:26 53.82008 10.24789 10686 ft 331 kts 62°
2026-05-07 09:26 53.83057 10.28321 11511 ft 338 kts 63°
2026-05-07 09:27 53.84092 10.31869 12392 ft 343 kts 63°
2026-05-07 09:27 53.85152 10.35533 13238 ft 350 kts 63°
2026-05-07 09:27 53.87314 10.43057 14847 ft 360 kts 63°
2026-05-07 09:28 53.88418 10.46908 15589 ft 366 kts 64°
2026-05-07 09:28 53.89541 10.50836 16321 ft 372 kts 64°
2026-05-07 09:28 53.90678 10.54815 17057 ft 378 kts 64°
2026-05-07 09:28 53.91832 10.58868 17811 ft 383 kts 64°
2026-05-07 09:29 53.92987 10.62916 18538 ft 388 kts 63°
2026-05-07 09:29 53.94371 10.66856 19200 ft 391 kts 54°
2026-05-07 09:29 53.96096 10.70466 19859 ft 395 kts 46°
2026-05-07 09:29 53.97993 10.73875 20502 ft 399 kts 46°
2026-05-07 09:30 53.99900 10.77332 21151 ft 403 kts 46°
2026-05-07 09:30 54.01825 10.80836 21787 ft 408 kts 46°
2026-05-07 09:30 54.03768 10.84382 22404 ft 412 kts 46°
2026-05-07 09:30 54.05072 10.86765 22711 ft 416 kts 46°
2026-05-07 09:31 54.07047 10.90379 22847 ft 417 kts 46°
2026-05-07 09:31 54.09022 10.93996 22985 ft 418 kts 46°
2026-05-07 09:31 54.11004 10.97633 23058 ft 419 kts 46°
2026-05-07 09:31 54.12983 11.01274 23067 ft 419 kts 47°
2026-05-07 09:32 54.14954 11.04924 23077 ft 418 kts 47°
2026-05-07 09:32 54.16926 11.08586 23072 ft 419 kts 47°
2026-05-07 09:32 54.18896 11.12250 23070 ft 419 kts 47°
2026-05-07 09:32 54.20865 11.15914 23071 ft 419 kts 47°
2026-05-07 09:33 54.22833 11.19588 23069 ft 419 kts 47°
2026-05-07 09:33 54.24801 11.23269 23074 ft 419 kts 47°
2026-05-07 09:33 54.26769 11.26959 23070 ft 420 kts 47°
2026-05-07 09:33 54.28739 11.30656 23072 ft 420 kts 47°
2026-05-07 09:34 54.30703 11.34349 23078 ft 420 kts 47°
2026-05-07 09:34 54.32674 11.38058 23013 ft 420 kts 47°
2026-05-07 09:34 54.34614 11.41716 22751 ft 419 kts 47°
2026-05-07 09:34 54.36568 11.45404 22485 ft 416 kts 47°
2026-05-07 09:35 54.38507 11.49069 22218 ft 413 kts 47°
2026-05-07 09:35 54.40438 11.52712 21948 ft 412 kts 47°
2026-05-07 09:35 54.42360 11.56341 21684 ft 410 kts 47°
2026-05-07 09:35 54.44271 11.59956 21426 ft 408 kts 47°
2026-05-07 09:36 54.46174 11.63561 21163 ft 406 kts 47°
2026-05-07 09:36 54.48070 11.67158 20899 ft 404 kts 47°
2026-05-07 09:36 54.49955 11.70735 20593 ft 403 kts 47°
2026-05-07 09:36 54.51838 11.74311 20061 ft 403 kts 47°
2026-05-07 09:37 54.53711 11.77874 19525 ft 400 kts 47°
2026-05-07 09:37 54.55566 11.81409 18986 ft 396 kts 47°
2026-05-07 09:37 54.57403 11.84914 18452 ft 392 kts 47°
2026-05-07 09:37 54.59216 11.88380 17882 ft 387 kts 47°
2026-05-07 09:38 54.61031 11.91768 17352 ft 381 kts 43°
2026-05-07 09:38 54.63009 11.94666 16859 ft 375 kts 35°
2026-05-07 09:38 54.65162 11.97158 16336 ft 370 kts 32°
2026-05-07 09:38 54.67303 11.99616 15828 ft 366 kts 32°
2026-05-07 09:39 54.69407 12.02051 15326 ft 362 kts 32°
2026-05-07 09:39 54.71489 12.04465 14834 ft 358 kts 33°
2026-05-07 09:39 54.73552 12.06857 14350 ft 355 kts 33°
2026-05-07 09:39 54.75598 12.09229 13853 ft 352 kts 33°
2026-05-07 09:40 54.77621 12.11578 13351 ft 348 kts 33°
2026-05-07 09:40 54.79617 12.13898 12871 ft 343 kts 33°
2026-05-07 09:40 54.81588 12.16192 12398 ft 339 kts 33°
2026-05-07 09:40 54.83532 12.18457 11943 ft 335 kts 33°
2026-05-07 09:41 54.85431 12.20671 11489 ft 331 kts 33°
2026-05-07 09:41 54.87333 12.22891 11029 ft 328 kts 33°
2026-05-07 09:41 54.89214 12.25090 10579 ft 324 kts 33°
2026-05-07 09:41 54.91059 12.27249 10379 ft 313 kts 33°
2026-05-07 09:42 54.92825 12.29319 10258 ft 299 kts 33°
2026-05-07 09:42 54.94520 12.31309 10102 ft 288 kts 33°
2026-05-07 09:42 54.96168 12.33241 9792 ft 283 kts 33°
2026-05-07 09:42 54.97793 12.35146 9426 ft 279 kts 33°
2026-05-07 09:43 54.99395 12.37027 9088 ft 276 kts 33°
2026-05-07 09:43 55.00988 12.38886 8697 ft 274 kts 33°
2026-05-07 09:43 55.02568 12.40729 8331 ft 272 kts 33°
2026-05-07 09:43 55.04140 12.42561 7948 ft 270 kts 33°
2026-05-07 09:44 55.05692 12.44374 7573 ft 268 kts 33°
2026-05-07 09:44 55.07232 12.46175 7211 ft 265 kts 33°
2026-05-07 09:44 55.08753 12.47956 6878 ft 261 kts 33°
2026-05-07 09:44 55.10237 12.49694 6578 ft 260 kts 33°
2026-05-07 09:45 55.11731 12.51446 6218 ft 259 kts 33°
2026-05-07 09:45 55.13225 12.53196 5799 ft 258 kts 33°
2026-05-07 09:45 55.14712 12.54940 5403 ft 257 kts 33°
2026-05-07 09:45 55.16193 12.56680 5013 ft 256 kts 34°
2026-05-07 09:46 55.17667 12.58414 4625 ft 254 kts 34°
2026-05-07 09:46 55.19132 12.60141 4243 ft 253 kts 34°
2026-05-07 09:46 55.20606 12.61764 4071 ft 252 kts 24°
2026-05-07 09:46 55.22336 12.62279 3948 ft 255 kts 355°
2026-05-07 09:47 55.24018 12.61340 3834 ft 255 kts 336°
2026-05-07 09:47 55.25577 12.59949 3764 ft 247 kts 333°
2026-05-07 09:47 55.27056 12.58556 3675 ft 236 kts 333°
2026-05-07 09:47 55.28471 12.57238 3584 ft 225 kts 334°
2026-05-07 09:48 55.29830 12.56003 3502 ft 215 kts 334°
2026-05-07 09:48 55.31131 12.54844 3395 ft 204 kts 334°
2026-05-07 09:48 55.32383 12.53739 3215 ft 199 kts 335°
2026-05-07 09:48 55.33644 12.52633 3080 ft 205 kts 334°
2026-05-07 09:49 55.34908 12.51525 2953 ft 202 kts 334°
2026-05-07 09:49 55.36147 12.50436 2837 ft 201 kts 334°
2026-05-07 09:49 55.37400 12.49332 2699 ft 201 kts 334°
2026-05-07 09:49 55.38646 12.48233 2566 ft 200 kts 334°
2026-05-07 09:50 55.39889 12.47136 2511 ft 200 kts 334°
2026-05-07 09:50 55.41100 12.46066 2504 ft 189 kts 334°
2026-05-07 09:50 55.42279 12.45024 2507 ft 190 kts 334°
2026-05-07 09:50 55.43457 12.43979 2510 ft 190 kts 334°
2026-05-07 09:51 55.44621 12.42948 2499 ft 181 kts 334°
2026-05-07 09:51 55.45763 12.42143 2286 ft 176 kts 351°
2026-05-07 09:51 55.46961 12.42319 2078 ft 175 kts 19°
2026-05-07 09:51 55.48042 12.43309 1987 ft 176 kts 34°
2026-05-07 09:52 55.49016 12.44641 2001 ft 178 kts 39°
2026-05-07 09:52 55.49951 12.46065 2007 ft 177 kts 40°
2026-05-07 09:52 55.50871 12.47479 2009 ft 178 kts 40°
2026-05-07 09:52 55.51808 12.48921 1992 ft 178 kts 40°
2026-05-07 09:53 55.52747 12.50365 1802 ft 179 kts 40°
2026-05-07 09:53 55.53666 12.51784 1549 ft 175 kts 40°
2026-05-07 09:53 55.54575 12.53185 1567 ft 170 kts 40°
2026-05-07 09:53 55.55515 12.54615 1221 ft 180 kts 40°
2026-05-07 09:54 55.56365 12.55960 1213 ft 152 kts 41°
2026-05-07 09:54 55.57195 12.57255 1696 ft 164 kts 39°
2026-05-07 09:54 55.58096 12.58636 2530 ft 182 kts 39°
2026-05-07 09:54 55.59162 12.60254 2919 ft 226 kts 39°
2026-05-07 09:55 55.60379 12.62145 3429 ft 225 kts 40°
2026-05-07 09:55 55.61714 12.63441 3236 ft 222 kts
2026-05-07 09:55 55.63248 12.63424 3010 ft 217 kts 352°
2026-05-07 09:55 55.64572 12.62457 3015 ft 202 kts 320°
2026-05-07 09:56 55.65442 12.60574 3017 ft 202 kts 297°
2026-05-07 09:56 55.66015 12.58309 3003 ft 202 kts 295°
2026-05-07 09:56 55.66572 12.56006 3008 ft 203 kts 295°
2026-05-07 09:56 55.66931 12.53588 3010 ft 207 kts 269°
2026-05-07 09:57 55.66624 12.51089 3029 ft 209 kts 255°
2026-05-07 09:57 55.66202 12.48622 3008 ft 208 kts 255°
2026-05-07 09:57 55.65655 12.46265 3009 ft 210 kts 238°
2026-05-07 09:57 55.64795 12.44148 3013 ft 211 kts 235°
2026-05-07 09:58 55.63909 12.42038 2998 ft 212 kts 235°
2026-05-07 09:58 55.63044 12.39967 3023 ft 210 kts 235°
2026-05-07 09:58 55.62156 12.37859 3044 ft 215 kts 235°
2026-05-07 09:58 55.61291 12.35817 3026 ft 205 kts 232°
2026-05-07 09:59 55.60153 12.34429 2879 ft 198 kts 196°
2026-05-07 09:59 55.58792 12.34241 2618 ft 195 kts 182°
2026-05-07 09:59 55.57473 12.34160 2336 ft 186 kts 176°
2026-05-07 09:59 55.56207 12.34330 2067 ft 177 kts 182°
2026-05-07 10:00 55.55048 12.34114 1990 ft 163 kts 173°
2026-05-07 10:00 55.54002 12.34956 2006 ft 169 kts 132°
2026-05-07 10:00 55.53506 12.36758 2011 ft 165 kts 108°
2026-05-07 10:00 55.52821 12.38372 2014 ft 167 kts 130°
2026-05-07 10:01 55.52102 12.39967 2005 ft 165 kts 125°
2026-05-07 10:01 55.51408 12.41597 2009 ft 167 kts 125°
2026-05-07 10:01 55.50752 12.43270 2002 ft 164 kts 114°
2026-05-07 10:01 55.50560 12.45213 2009 ft 162 kts 81°
2026-05-07 10:02 55.50945 12.47027 2007 ft 158 kts 56°
2026-05-07 10:02 55.51631 12.48528 2002 ft 157 kts 44°
2026-05-07 10:02 55.52428 12.49867 1864 ft 157 kts 40°
2026-05-07 10:02 55.53245 12.51131 1646 ft 157 kts 39°
2026-05-07 10:03 55.54054 12.52381 1432 ft 156 kts 39°
2026-05-07 10:03 55.54842 12.53597 1223 ft 141 kts 39°
2026-05-07 10:03 55.55541 12.54672 1039 ft 126 kts 40°
2026-05-07 10:03 55.56187 12.55663 871 ft 125 kts 39°
2026-05-07 10:04 55.56842 12.56684 687 ft 124 kts 40°
2026-05-07 10:04 55.57493 12.57704 532 ft 126 kts 39°
2026-05-07 10:04 55.58151 12.58718 366 ft 124 kts 39°
2026-05-07 10:04 55.58806 12.59713 183 ft 124 kts 40°
2026-05-07 10:05 55.59444 12.60703 24 ft 116 kts 40°
2026-05-07 10:05 55.59920 12.61435 19 ft 62 kts 41°
2026-05-07 10:05 55.60113 12.61734 28 ft 25 kts 40°
2026-05-07 10:05 55.60253 12.61945 20 ft 28 kts 39°
2026-05-07 10:06 55.60402 12.62172 20 ft 28 kts 37°
2026-05-07 10:06 55.60565 12.62313 28 ft 26 kts 14°
2026-05-07 10:06 55.60738 12.62383 27 ft 27 kts 13°
2026-05-07 10:06 55.60896 12.62563 25 ft 28 kts 40°
2026-05-07 10:07 55.61025 12.62765 22 ft 19 kts 40°
2026-05-07 10:07 55.61133 12.62925 27 ft 20 kts 40°
2026-05-07 10:07 55.61240 12.63094 26 ft 21 kts 42°
2026-05-07 10:07 55.61352 12.63273 28 ft 24 kts 41°